User: anonymous   Login
Location: Domont
(49.0278°N, 2.3264°E)
Time: 15:22:48
(UTC+00:00)
Language:

Cosmos 1535 Rocket - Orbit

View from above orbital plane
View from above orbital plane
View from above satellite
View from above satellite

Ground track
Ground track

The orbit data is extracted from the following two-line orbital elements,

1 14680U 84010B   22022.93660640  .00000119  00000-0  10532-3 0  9999
2 14680  82.9548 235.3175 0038582  34.8036  79.6166 13.76510848907029
Epoch (UTC): 22 January 2022 22:28:42
Eccentricity: 0.0038582
inclination: 82.9548°
perigee height: 948 km
apogee height: 1004 km
right ascension of ascending node: 235.3175°
argument of perigee: 34.8036°
revolutions per day: 13.76510848
mean anomaly at epoch: 79.6166°
orbit number at epoch: 90702

The dashed part of the orbit path shows where the satellite is in the earth's shadow,  

DLR